Terug naar catalogus

ARIANE 2 R/B

ActiefGTO
NORAD 19773·ROCKET BODY·🇫🇷 France

Gelanceerd Jan 27, 1989 vanaf Guiana Space Centre

Loading…

TLE

VerouderendSource: Space-Track

Epoch: Sep 14, 2026, 07:26 UTC

1 19773U 89006B   26257.31030462  .00000301  00000-0  27934-2 0  9992
2 19773   8.5324  15.7063 7170455 192.7810 128.1015  2.29309600312713

Volg ARIANE 2 R/B in realtime met AllMySat

Download on the App Store